Florencia — IBPD — position and weather

sailwx.info

Track history (hours):
 
Tides and Currents Weather Stations Pressure Air Temp Water Temp Dewpoint Dewpoint Depression Visibility Wind Speed Wind Dir Waves Ship Positions

Florencia

Last reported at 2014-Oct-21 17:33 UTC. Time now 2014-Oct-21 18:28 UTC.
Position N 37°59' E 013°42'.

Length 186 m; draft 5.8 m.

Type: Ship. MMSI: 247105900.

Date/timePositionNaut miles runAvg speedWind from/ knotsBaromVisibWave heightAir tempDewpointWater temp
2014-Oct-21 17:33N 37°59' E 013°42'0 0.0
2014-Oct-21 16:33N 37°59' E 013°42'0 0.0
2014-Oct-21 15:33N 37°59' E 013°42'0 0.0
2014-Oct-21 14:33N 37°59' E 013°42'0 0.0
2014-Oct-21 13:33N 37°59' E 013°42'0 0.0
2014-Oct-21 12:33N 37°59' E 013°42'0 0.0
2014-Oct-21 11:33N 37°59' E 013°42'0 0.0
2014-Oct-21 10:33N 37°59' E 013°42'0 0.0
2014-Oct-21 09:33N 37°59' E 013°42'0 0.0
2014-Oct-21 08:33N 37°59' E 013°42'0 0.0
2014-Oct-21 07:33N 37°59' E 013°42'9 8.5
2014-Oct-21 06:33N 38°08' E 013°44'2221.7
2014-Oct-21 05:33N 38°29' E 013°38'2221.9
2014-Oct-21 04:33N 38°49' E 013°26'7 0.2
2014-Oct-19 20:13N 38°48' E 013°16'1421.4
2014-Oct-19 19:33N 38°34' E 013°21'2221.8
2014-Oct-19 18:33N 38°13' E 013°25'6 5.1
2014-Oct-19 17:29N 38°08' E 013°22'0 0.0
2014-Oct-19 16:32N 38°08' E 013°22'0 0.0
2014-Oct-19 15:32N 38°08' E 013°22'0 0.0
2014-Oct-19 14:32N 38°08' E 013°22'0 0.0
2014-Oct-19 13:33N 38°08' E 013°22'0 0.0
2014-Oct-19 12:33N 38°08' E 013°22'0 0.0
2014-Oct-19 11:33N 38°08' E 013°22'0 0.0
2014-Oct-19 10:33N 38°08' E 013°22'1 0.6
2014-Oct-19 09:33N 38°07' E 013°22'1111.3
2014-Oct-19 08:33N 38°18' E 013°17'2222.2
2014-Oct-19 07:33N 38°18' E 012°48'10721.1
2014-Oct-19 02:30N 37°20' E 010°55'2021.6
2014-Oct-19 01:33N 37°05' E 010°38'2121.1
2014-Oct-19 00:32N 36°48' E 010°22'3 1.4
2014-Oct-18 22:33N 36°49' E 010°18'0 0.0
2014-Oct-18 21:33N 36°49' E 010°18'0 0.0
2014-Oct-18 20:33N 36°49' E 010°18'0 0.0
2014-Oct-18 19:33N 36°49' E 010°18'1 1.2
2014-Oct-18 18:33N 36°48' E 010°20'1818.5
2014-Oct-18 17:33N 37°01' E 010°35'2222.0
2014-Oct-18 16:33N 37°18' E 010°54'10721.4
2014-Oct-18 11:33N 38°16' E 012°47'2121.5
2014-Oct-18 10:33N 38°17' E 013°14'1211.5
2014-Oct-18 09:33N 38°08' E 013°22'0 0.4
2014-Oct-18 08:33N 38°08' E 013°22'0 0.0
2014-Oct-18 07:33N 38°08' E 013°22'4 4.3
2014-Oct-18 06:33N 38°12' E 013°25'2121.0
2014-Oct-18 05:33N 38°32' E 013°22'2120.9
2014-Oct-18 04:33N 38°53' E 013°15'2221.2
2014-Oct-18 03:30N 39°14' E 013°06'80 2.3
2014-Oct-16 16:27N 37°59' E 013°42'0 0.0
2014-Oct-16 15:33N 37°59' E 013°42'0 0.0
2014-Oct-16 14:33N 37°59' E 013°42'17 2.1
2014-Oct-16 06:33N 38°16' E 013°43'2121.0
2014-Oct-16 05:34N 38°35' E 013°34'2121.2
2014-Oct-16 04:33N 38°55' E 013°23'15 0.6
2014-Oct-15 01:33N 38°40' E 013°21'2121.3
2014-Oct-15 00:33N 38°19' E 013°24'1211.3
2014-Oct-14 23:32N 38°08' E 013°22'0 0.0
2014-Oct-14 22:32N 38°08' E 013°22'0 0.0
2014-Oct-14 21:32N 38°08' E 013°22'0 0.0
2014-Oct-14 20:32N 38°08' E 013°22'0 0.0
2014-Oct-14 19:29N 38°08' E 013°22'0 0.0
2014-Oct-14 18:32N 38°08' E 013°22'0 0.0
2014-Oct-14 17:32N 38°08' E 013°22'0 0.0
2014-Oct-14 16:32N 38°08' E 013°22'0 0.0
2014-Oct-14 15:29N 38°08' E 013°22'0 0.0
2014-Oct-14 14:29N 38°08' E 013°22'0 0.0
2014-Oct-14 13:32N 38°08' E 013°22'0 0.0
2014-Oct-14 12:32N 38°08' E 013°22'0 0.0
2014-Oct-14 11:32N 38°08' E 013°22'0 0.0
2014-Oct-14 10:32N 38°08' E 013°22'0 0.0
2014-Oct-14 09:29N 38°08' E 013°22'0 0.0
2014-Oct-14 08:29N 38°08' E 013°22'48 1.3
2014-Oct-12 20:33N 38°55' E 013°13'2121.2
2014-Oct-12 19:33N 38°35' E 013°21'2121.3
2014-Oct-12 18:33N 38°14' E 013°25'6 6.4
2014-Oct-12 17:33N 38°08' E 013°22'0 0.0
2014-Oct-12 16:33N 38°08' E 013°22'0 0.0
2014-Oct-12 15:33N 38°08' E 013°22'0 0.0
2014-Oct-12 14:34N 38°08' E 013°22'0 0.0
2014-Oct-12 13:33N 38°08' E 013°22'0 0.0
2014-Oct-12 12:33N 38°08' E 013°22'0 0.0
2014-Oct-12 11:33N 38°08' E 013°22'0 0.0
2014-Oct-12 10:33N 38°08' E 013°22'1 0.8
2014-Oct-12 09:33N 38°07' E 013°23'1413.7
2014-Oct-12 08:33N 38°18' E 013°12'2221.7
2014-Oct-12 07:33N 38°18' E 012°44'10621.3
2014-Oct-12 02:33N 37°18' E 010°52'2322.3
2014-Oct-12 01:33N 37°01' E 010°34'1817.8
2014-Oct-12 00:33N 36°48' E 010°19'0 0.2
2014-Oct-11 21:18N 36°49' E 010°18'0 0.0
2014-Oct-11 20:33N 36°49' E 010°18'0 0.0
2014-Oct-11 19:11N 36°49' E 010°18'3 4.0
2014-Oct-11 18:33N 36°48' E 010°21'  
Track history (hours):
 
Tides and Currents Weather Stations Pressure Air Temp Water Temp Dewpoint Dewpoint Depression Visibility Wind Speed Wind Dir Waves Ship Positions

Florencia

Last reported at 2014-Oct-21 17:33 UTC. Time now 2014-Oct-21 18:28 UTC.
Position N 37°59' E 013°42'.

Length 186 m; draft 5.8 m.

Type: Ship. MMSI: 247105900.

Date/timePositionNaut miles runAvg speedWind from/ knotsBaromVisibWave heightAir tempDewpointWater temp
2014-Oct-21 17:33N 37°59' E 013°42'0 0.0
2014-Oct-21 16:33N 37°59' E 013°42'0 0.0
2014-Oct-21 15:33N 37°59' E 013°42'0 0.0
2014-Oct-21 14:33N 37°59' E 013°42'0 0.0
2014-Oct-21 13:33N 37°59' E 013°42'0 0.0
2014-Oct-21 12:33N 37°59' E 013°42'0 0.0
2014-Oct-21 11:33N 37°59' E 013°42'0 0.0
2014-Oct-21 10:33N 37°59' E 013°42'0 0.0
2014-Oct-21 09:33N 37°59' E 013°42'0 0.0
2014-Oct-21 08:33N 37°59' E 013°42'0 0.0
2014-Oct-21 07:33N 37°59' E 013°42'9 8.5
2014-Oct-21 06:33N 38°08' E 013°44'2221.7
2014-Oct-21 05:33N 38°29' E 013°38'2221.9
2014-Oct-21 04:33N 38°49' E 013°26'7 0.2
2014-Oct-19 20:13N 38°48' E 013°16'1421.4
2014-Oct-19 19:33N 38°34' E 013°21'2221.8
2014-Oct-19 18:33N 38°13' E 013°25'6 5.1
2014-Oct-19 17:29N 38°08' E 013°22'0 0.0
2014-Oct-19 16:32N 38°08' E 013°22'0 0.0
2014-Oct-19 15:32N 38°08' E 013°22'0 0.0
2014-Oct-19 14:32N 38°08' E 013°22'0 0.0
2014-Oct-19 13:33N 38°08' E 013°22'0 0.0
2014-Oct-19 12:33N 38°08' E 013°22'0 0.0
2014-Oct-19 11:33N 38°08' E 013°22'0 0.0
2014-Oct-19 10:33N 38°08' E 013°22'1 0.6
2014-Oct-19 09:33N 38°07' E 013°22'1111.3
2014-Oct-19 08:33N 38°18' E 013°17'2222.2
2014-Oct-19 07:33N 38°18' E 012°48'10721.1
2014-Oct-19 02:30N 37°20' E 010°55'2021.6
2014-Oct-19 01:33N 37°05' E 010°38'2121.1
2014-Oct-19 00:32N 36°48' E 010°22'3 1.4
2014-Oct-18 22:33N 36°49' E 010°18'0 0.0
2014-Oct-18 21:33N 36°49' E 010°18'0 0.0
2014-Oct-18 20:33N 36°49' E 010°18'0 0.0
2014-Oct-18 19:33N 36°49' E 010°18'1 1.2
2014-Oct-18 18:33N 36°48' E 010°20'1818.5
2014-Oct-18 17:33N 37°01' E 010°35'2222.0
2014-Oct-18 16:33N 37°18' E 010°54'10721.4
2014-Oct-18 11:33N 38°16' E 012°47'2121.5
2014-Oct-18 10:33N 38°17' E 013°14'1211.5
2014-Oct-18 09:33N 38°08' E 013°22'0 0.4
2014-Oct-18 08:33N 38°08' E 013°22'0 0.0
2014-Oct-18 07:33N 38°08' E 013°22'4 4.3
2014-Oct-18 06:33N 38°12' E 013°25'2121.0
2014-Oct-18 05:33N 38°32' E 013°22'2120.9
2014-Oct-18 04:33N 38°53' E 013°15'2221.2
2014-Oct-18 03:30N 39°14' E 013°06'80 2.3
2014-Oct-16 16:27N 37°59' E 013°42'0 0.0
2014-Oct-16 15:33N 37°59' E 013°42'0 0.0
2014-Oct-16 14:33N 37°59' E 013°42'17 2.1
2014-Oct-16 06:33N 38°16' E 013°43'2121.0
2014-Oct-16 05:34N 38°35' E 013°34'2121.2
2014-Oct-16 04:33N 38°55' E 013°23'15 0.6
2014-Oct-15 01:33N 38°40' E 013°21'2121.3
2014-Oct-15 00:33N 38°19' E 013°24'1211.3
2014-Oct-14 23:32N 38°08' E 013°22'0 0.0
2014-Oct-14 22:32N 38°08' E 013°22'0 0.0
2014-Oct-14 21:32N 38°08' E 013°22'0 0.0
2014-Oct-14 20:32N 38°08' E 013°22'0 0.0
2014-Oct-14 19:29N 38°08' E 013°22'0 0.0
2014-Oct-14 18:32N 38°08' E 013°22'0 0.0
2014-Oct-14 17:32N 38°08' E 013°22'0 0.0
2014-Oct-14 16:32N 38°08' E 013°22'0 0.0
2014-Oct-14 15:29N 38°08' E 013°22'0 0.0
2014-Oct-14 14:29N 38°08' E 013°22'0 0.0
2014-Oct-14 13:32N 38°08' E 013°22'0 0.0
2014-Oct-14 12:32N 38°08' E 013°22'0 0.0
2014-Oct-14 11:32N 38°08' E 013°22'0 0.0
2014-Oct-14 10:32N 38°08' E 013°22'0 0.0
2014-Oct-14 09:29N 38°08' E 013°22'0 0.0
2014-Oct-14 08:29N 38°08' E 013°22'48 1.3
2014-Oct-12 20:33N 38°55' E 013°13'2121.2
2014-Oct-12 19:33N 38°35' E 013°21'2121.3
2014-Oct-12 18:33N 38°14' E 013°25'6 6.4
2014-Oct-12 17:33N 38°08' E 013°22'0 0.0
2014-Oct-12 16:33N 38°08' E 013°22'0 0.0
2014-Oct-12 15:33N 38°08' E 013°22'0 0.0
2014-Oct-12 14:34N 38°08' E 013°22'0 0.0
2014-Oct-12 13:33N 38°08' E 013°22'0 0.0
2014-Oct-12 12:33N 38°08' E 013°22'0 0.0
2014-Oct-12 11:33N 38°08' E 013°22'0 0.0
2014-Oct-12 10:33N 38°08' E 013°22'1 0.8
2014-Oct-12 09:33N 38°07' E 013°23'1413.7
2014-Oct-12 08:33N 38°18' E 013°12'2221.7
2014-Oct-12 07:33N 38°18' E 012°44'10621.3
2014-Oct-12 02:33N 37°18' E 010°52'2322.3
2014-Oct-12 01:33N 37°01' E 010°34'1817.8
2014-Oct-12 00:33N 36°48' E 010°19'0 0.2
2014-Oct-11 21:18N 36°49' E 010°18'0 0.0
2014-Oct-11 20:33N 36°49' E 010°18'0 0.0
2014-Oct-11 19:11N 36°49' E 010°18'3 4.0
2014-Oct-11 18:33N 36°48' E 010°21'  

Dump ship's entire track history